Flag for Ireland Weather past 2 weeks in Dublin, Ireland

Now
52 °F

Light rain. Partly cloudy.


Feels Like: 46 °F
Forecast: N/A
Wind: 21 mph from Southwest

Location: Dublin Airport

Current Time: Jan 25, 2015 at 6:29:32 PM

Latest Report: Jan 25, 2015 at 6:00 PM


Visibility: N/A

Pressure: 30.15 "Hg

Humidity: 82%

Dew point: 46 °F

Location of DublinLocation

Historic Weather in Dublin — Graph

°F

Dublin temperature yesterday

Maximum temperature yesterday: 45 °F (at 2:00 PM)
Minimum temperature yesterday: 34 °F (at 2:30 AM)
Average temperature yesterday: 38 °F

Past Weeks' High & Low Weather Summary

 TemperatureHumidityPressure
High52 °F (Jan 14, 8:30 PM)100% (Jan 16, 12:00 AM)30.42 "Hg (Jan 16, 12:00 AM)
Low21 °F (Jan 19, 8:00 AM)57% (Jan 12, 2:00 PM)28.65 "Hg (Jan 14, 9:00 PM)
Average38 °F86%29.76 "Hg
* Reported Jan 10 5:00 PM — Jan 25 5:30 PM, Dublin, Weather by CustomWeather, © 2014

Note: Actual official high and low records may vary slightly from our data, if they occured in-between our weather recording intervals... More about our weather records

Advertising

Dublin weather history for previous 24 hours

 ConditionsComfort  
Time TempWeatherWind HumidityBarometerVisibility
5:30 PM
Jan 25
52 °FPartly cloudy.15 mph82%30.15 "HgN/A
5:00 PM52 °FPartly cloudy.14 mph82%30.15 "HgN/A
4:30 PM52 °FLight rain. Broken clouds.16 mph88%30.18 "HgN/A
4:00 PM52 °FPartly sunny.14 mph88%30.18 "HgN/A
3:30 PM52 °FBroken clouds.15 mph88%30.18 "HgN/A
3:00 PM52 °FBroken clouds.16 mph88%30.18 "HgN/A
2:30 PM52 °FBroken clouds.18 mph88%30.18 "HgN/A
2:00 PM52 °FPartly sunny.16 mph88%30.18 "HgN/A
1:30 PM50 °FPartly sunny.16 mph88%30.21 "HgN/A
1:00 PM50 °FPartly sunny.21 mph88%30.21 "HgN/A
12:30 PM50 °FPartly sunny.18 mph88%30.24 "HgN/A
12:00 PM50 °FPartly sunny.20 mph88%30.24 "HgN/A
11:30 AM50 °FBroken clouds.21 mph88%30.24 "HgN/A
11:00 AM50 °FBroken clouds.22 mph82%30.24 "HgN/A
10:30 AM48 °FBroken clouds.20 mph87%30.24 "HgN/A
10:00 AM48 °FBroken clouds.20 mph82%30.27 "HgN/A
9:30 AM46 °FPartly sunny.18 mph87%30.27 "HgN/A
9:00 AM46 °FBroken clouds.17 mph82%30.27 "HgN/A
8:30 AM46 °FPartly sunny.14 mph82%30.27 "HgN/A
8:00 AM45 °FPassing clouds.16 mph87%30.30 "HgN/A
7:30 AM45 °FPartly cloudy.15 mph81%30.30 "HgN/A
7:00 AM45 °FPassing clouds.13 mph81%30.30 "HgN/A
6:30 AM43 °FPassing clouds.13 mph81%30.30 "HgN/A
6:00 AM43 °FPartly cloudy.15 mph81%30.30 "HgN/A
5:30 AM43 °FPassing clouds.12 mph81%30.33 "HgN/A
5:00 AM43 °FClear.15 mph76%30.30 "Hg10 mi
4:30 AM41 °FClear.13 mph81%30.33 "Hg10 mi
4:00 AM41 °FClear.15 mph81%30.33 "Hg10 mi
3:30 AM41 °FClear.15 mph81%30.33 "Hg10 mi
3:00 AM41 °FClear.16 mph81%30.36 "Hg10 mi
2:30 AM41 °FPartly cloudy.15 mph76%30.36 "HgN/A
2:00 AM41 °FPassing clouds.15 mph76%30.36 "HgN/A
1:30 AM43 °FPassing clouds.17 mph71%30.36 "HgN/A
1:00 AM43 °FPartly cloudy.16 mph71%30.39 "HgN/A
12:30 AM43 °FPassing clouds.14 mph71%30.39 "HgN/A
12:00 AM43 °FPassing clouds.14 mph71%30.39 "HgN/A
11:30 PM
Jan 24
43 °FPassing clouds.15 mph71%30.39 "HgN/A
11:00 PM41 °FPassing clouds.9 mph76%30.39 "HgN/A
10:30 PM41 °FPassing clouds.10 mph76%30.39 "HgN/A
10:00 PM41 °FPassing clouds.9 mph81%30.42 "HgN/A
9:30 PM41 °FPassing clouds.9 mph81%30.42 "HgN/A
9:00 PM41 °FPassing clouds.8 mph76%30.42 "HgN/A
8:30 PM41 °FPartly cloudy.8 mph81%30.42 "HgN/A
8:00 PM41 °FClear.9 mph81%30.42 "Hg10 mi
7:30 PM41 °FPassing clouds.10 mph81%30.42 "HgN/A
7:00 PM41 °FPartly cloudy.12 mph81%30.42 "HgN/A
6:30 PM41 °FPartly cloudy.12 mph81%30.42 "HgN/A
6:00 PM41 °FPartly cloudy.10 mph81%30.42 "HgN/A
Weather by CustomWeather, © 2014

See weather overviewHow to use our weather pages